Terminal Aerodrome Forecast
Issued by NWS

Home | Current Version | Previous Version | Text Only | Print | Product List | Glossary On
Versions: 1 2 3 4 5 6 7 8 9 10 11 12 13 14 15 16 17 18 19 20 21
000
FTAK31 PAFA 301720
TAFAOR
TAF
PAOR 301720Z 3018/0118 00000KT P6SM BKN070
     FM010000 29006KT 6SM -RA BR BKN025 BKN035 OVC050=

USA.gov is the U.S. government's official web portal to all federal, state and local government web resources and services.